Powrót do katalogu

THORAD AGENA D DEB

AktywnyLEO
NORAD 4249·DEBRIS·🇺🇸 United States

Wystrzelony Sep 30, 1969 z Vandenberg Space Force Base

Loading…

Następne Przeloty (najbliższe 24 godziny)

TLE

ŚwieżeSource: Space-Track

Epoka: Sep 14, 2026, 03:23 UTC

1 04249U 69082CY  26257.14097422  .00000400  00000-0  19783-3 0  9990
2 04249  70.0619 163.8931 0054683 123.5123 237.1240 14.23409492934641

Śledź THORAD AGENA D DEB w czasie rzeczywistym z AllMySat

Download on the App Store